TimePDT,TemperatureF,Dew PointF,Humidity,Sea Level PressureIn,VisibilityMPH,Wind Direction,Wind SpeedMPH,Gust SpeedMPH,PrecipitationIn,Events,Conditions,WindDirDegrees,DateUTC
12:53 AM,50.0,43.0,77,30.09,10.0,Calm,Calm,-,N/A,,Clear,0,2012-10-27 07:53:00
1:53 AM,50.0,43.0,77,30.08,10.0,Calm,Calm,-,N/A,,Clear,0,2012-10-27 08:53:00
2:53 AM,52.0,45.0,77,30.08,10.0,NE,3.5,-,N/A,,Clear,40,2012-10-27 09:53:00
3:53 AM,48.9,43.0,80,30.06,10.0,Calm,Calm,-,N/A,,Clear,0,2012-10-27 10:53:00
4:53 AM,48.0,44.1,86,30.06,10.0,Calm,Calm,-,N/A,,Clear,0,2012-10-27 11:53:00
5:53 AM,50.0,45.0,83,30.06,10.0,Calm,Calm,-,N/A,,Clear,0,2012-10-27 12:53:00
6:53 AM,46.9,43.0,86,30.07,10.0,Calm,Calm,-,N/A,,Clear,0,2012-10-27 13:53:00
7:53 AM,48.0,44.1,86,30.09,10.0,ENE,4.6,-,N/A,,Clear,70,2012-10-27 14:53:00
8:53 AM,55.0,46.9,74,30.09,10.0,ESE,5.8,-,N/A,,Clear,120,2012-10-27 15:53:00
9:53 AM,59.0,46.9,64,30.09,10.0,South,5.8,-,N/A,,Clear,170,2012-10-27 16:53:00
10:53 AM,63.0,48.9,60,30.07,10.0,Variable,3.5,-,N/A,,Clear,0,2012-10-27 17:53:00
11:53 AM,68.0,46.9,47,30.06,10.0,Variable,3.5,-,N/A,,Clear,0,2012-10-27 18:53:00
12:53 PM,70.0,46.0,42,30.04,10.0,Variable,3.5,-,N/A,,Clear,0,2012-10-27 19:53:00
1:53 PM,73.0,46.0,38,30.01,10.0,WNW,4.6,-,N/A,,Clear,290,2012-10-27 20:53:00
2:53 PM,73.0,45.0,37,29.99,10.0,Variable,3.5,-,N/A,,Clear,0,2012-10-27 21:53:00
3:53 PM,75.0,45.0,34,29.97,10.0,WNW,4.6,-,N/A,,Clear,300,2012-10-27 22:53:00
4:53 PM,73.9,44.1,34,29.96,10.0,WNW,4.6,-,N/A,,Clear,290,2012-10-27 23:53:00
5:53 PM,69.1,46.0,44,29.96,10.0,WNW,3.5,-,N/A,,Clear,290,2012-10-28 00:53:00
6:53 PM,64.0,48.9,58,29.97,10.0,Calm,Calm,-,N/A,,Clear,0,2012-10-28 01:53:00
7:53 PM,60.1,48.0,64,29.98,10.0,Calm,Calm,-,N/A,,Clear,0,2012-10-28 02:53:00
9:53 PM,57.0,46.0,67,29.99,10.0,East,3.5,-,N/A,,Clear,90,2012-10-28 04:53:00
10:53 PM,57.0,46.0,67,30.01,10.0,East,3.5,-,N/A,,Clear,80,2012-10-28 05:53:00
11:53 PM,52.0,44.1,74,30.01,10.0,East,3.5,-,N/A,,Clear,100,2012-10-28 06:53:00